Skip Page Navigation
NASA JPL Caltech
NASA Logo - Jet Propulsion Laboratory + View the NASA Portal
+ Near-Earth Object (NEO) Program
Search JPL
JPL Home Earth Solar System Stars & Galaxies Technology
JPL Solar System Dynamics
BODIES ORBITS EPHEMERIDES TOOLS PHYSICAL DATA DISCOVERY FAQ SITE MAP
JPL Small-Body Database Browser
Search: [ help ]  
P/2011 R3 (Novichonok)
Classification: Jupiter-family Comet          SPK-ID: 1003148
Ephemeris | Orbit Diagram | Orbital Elements | Physical Parameters | Close-Approach Data ]

[ hide orbit diagram ]
Orbit Diagram
Note: Make sure you have Java enabled on your browser to see the applet. This applet is provided as a 3D orbit visualization tool. The applet was implemented using 2-body methods, and hence should not be used for determining accurate long-term trajectories (over several years or decades) or planetary encounter circumstances. For accurate long-term ephemerides, please instead use our Horizons system.
Orbit Viewer

Additional Notes: the orbits shown in the applet are color coded. The planets are white lines, and the asteroid/comet is a blue line. The bright white line indicates the portion of the orbit that is above the ecliptic plane, and the darker portion is below the ecliptic plane. Likewise for the asteroid/comet orbit, the light blue indicates the portion above the ecliptic plane, and the dark blue the portion below the ecliptic plane.

Orbit Viewer applet originally written and kindly provided by Osamu Ajiki (AstroArts), and further modified by Ron Baalke (JPL).


Orbital Elements at Epoch 2455891.5 (2011-Nov-26.0) TDB
Reference: JPL 33 (heliocentric ecliptic J2000)
 Element Value Uncertainty (1-sigma)   Units 
e .2676765499774846 5.7481e-06  
a 4.857170162733554 4.4248e-05 AU
q 3.557019610919459 5.377e-06 AU
i 19.27242340265938 3.9902e-05 deg
node 190.6762500214462 5.2289e-05 deg
peri 225.3759203480016 0.0012029 deg
M 347.9838104865926 0.00070907 deg
tp 2456022.008161908779
(2012-Apr-04.50816191)
0.0077398 JED
period 3909.969814868329
10.70
0.053429
0.0001463
d
yr
n .09207232204991417 1.2581e-06 deg/d
Q 6.157320714547649 5.6092e-05 AU
  Orbit Determination Parameters
   # obs. used (total)      391  
   data-arc span      579 days (1.59 yr)  
   first obs. used      2011-09-07  
   last obs. used      2013-04-08  
   planetary ephem.      DE405  
   SB-pert. ephem.      SB405-CPV-2  
   condition code      3  
   fit RMS      .65971  
   data source      ORB  
   producer      Otto Matic  
   solution date      2013-Apr-29 12:31:15  

Additional Information
 Earth MOID = 2.60105 AU 
 T_jup = 2.829 
[ show covariance matrix ]

Ephemeris | Orbit Diagram | Orbital Elements | Physical Parameters | Close-Approach Data ]

Physical Parameter Table
Parameter Symbol Value Units Sigma Reference Notes
comet total magnitude M1 10.6 mag 0.5 33 from 168 observations, assumed slope, autocmod 2.5c
comet total magnitude slope K1 10.   n/a 33 autocmod 2.5c
comet nuclear magnitude M2 13.5 mag 0.5 33 from 189 observations, autocmod 2.5c
comet nuclear magnitude slope K2 5.   n/a 33 autocmod 2.5c
comet nuclear phase coefficient PC 0.03   n/a 33 autocmod 2.5c

[ show close-approach data ]
Alternate Designations
 Perihelion 
Year
(est.)
 New-Style 
Desig
Roman
 Numeral 
Year/
 Letter 
 2012.3   P/2011 R3       
Ephemeris | Orbit Diagram | Orbital Elements | Physical Parameters | Close-Approach Data ]
ABOUT SSD CREDITS/AWARDS PRIVACY/COPYRIGHT GLOSSARY LINKS
FirstGov 2013-May-24 04:26 UT
(server date/time)  
NASA Home Page
Site Manager:   Donald K. Yeomans
Webmaster  Alan B. Chamberlin